Location: *
(38.0794°N, 23.5234°E)
Time: 22:53:31
(UTC+00:00)

Daily predictions for brighter satellites

Satellite Brightness Start Highest point End
(mag) Time Altitude Azimuth Time Altitude Azimuth Time Altitude Azimuth
Cosmos 1980 Rocket 3.9 16:13:19 10° NNE 16:16:07 14° NE 16:18:55 10° E
Cosmos 1420 Rocket 4.3 16:15:05 10° NNW 16:20:21 75° WSW 16:25:36 10° S
Cosmos 2180 Rocket 4.5 16:17:03 10° S 16:23:16 69° E 16:29:27 10° NNE
Cosmos 1408 1.8 16:21:04 10° NNW 16:23:23 67° W 16:25:40 10° S
Cosmos 2056 Rocket 3.6 16:18:29 10° NNW 16:23:56 88° ENE 16:29:20 10° SSE
Cosmos 220 Rocket 4.0 16:20:06 10° SSW 16:24:23 87° WNW 16:28:43 10° NNE
Landsat 7 4.4 16:22:29 10° SE 16:26:42 34° ENE 16:30:57 10° N
CZ-4 R/B 4.5 16:22:52 10° SSE 16:26:47 53° ENE 16:30:43 10° N
Cosmos 1470 Rocket 4.3 16:27:20 10° SSW 16:31:41 59° W 16:36:02 10° N
H-2A R/B 4.4 16:09:19 10° WSW 16:32:08 37° S 16:36:48 10° ESE
Okean 1-7 3.0 16:28:22 10° N 16:32:34 84° W 16:36:43 10° S
Cosmos 1174 4.1 16:30:47 10° N 16:33:22 26° NE 16:35:48 11° ESE
ADEOS Rocket 4.4 16:27:34 10° S 16:33:33 47° W 16:40:13 10° NNW
Cosmos 1758 4.0 16:31:52 10° SSE 16:35:11 29° E 16:38:32 10° NNE
Cosmos 1470 4.5 16:32:01 10° SW 16:35:21 34° W 16:38:42 10° NNW
YAOGAN 1 3.1 16:35:55 10° SE 16:39:49 36° ENE 16:43:45 10° N
CZ-2C R/B 2.5 16:36:37 10° SSE 16:39:56 52° ENE 16:43:17 10° N
Cosmos 921 Rocket 3.0 16:36:36 10° S 16:41:02 77° ESE 16:45:31 10° NNE
Meteor 1-24 Rocket 4.3 16:38:13 10° N 16:43:02 32° ENE 16:47:45 10° SE
Cosmos 1869 Rocket 3.7 16:38:57 10° SSE 16:43:08 49° E 16:47:22 10° NNE
Cosmos 1703 Rocket 3.4 16:39:09 10° N 16:43:30 73° E 16:47:46 10° SSE
COSMO-SKYMED 1 2.9 16:41:05 10° N 16:45:25 71° WNW 16:49:44 10° SSW
DNEPR-1 R/B 4.3 16:40:42 10° NW 16:45:46 61° WSW 16:50:03 10° SSE
Cosmos 1697 Rocket 2.9 16:41:39 10° NNW 16:47:09 50° ENE 16:52:37 10° SE
ACS3 Solar Sail 3.3 16:45:35 14° ENE 16:47:15 15° ENE 16:50:40 10° NNE
Cosmos 1933 Rocket 3.7 16:45:55 10° S 16:50:15 78° W 16:54:39 10° N
Cosmos 2360 4.2 16:44:35 10° NNW 16:50:19 86° ENE 16:55:59 10° SSE
CZ-4 R/B 3.5 16:52:08 11° NE 16:52:08 11° NE 16:52:46 10° NE
Meteor 2-10 Rocket 3.7 16:52:14 10° S 16:57:54 75° E 17:03:43 10° NNE
Meteor 2-5 Rocket 4.0 16:54:09 10° N 16:59:39 46° ENE 17:05:00 10° SSE
Cosmos 1825 3.9 16:57:44 10° NNE 16:58:20 13° NE 16:58:20 13° NE
NOAA 6 4.0 16:55:17 10° SSE 17:00:25 86° ENE 17:05:37 10° NNW
Longmarch 3A Rocket 4.3 17:00:17 10° SW 17:04:22 36° SSE 17:13:21 18° ESE
ARGOS Delta rocket 4.0 17:02:38 10° SE 17:06:45 40° ENE 17:10:51 10° N
Lacrosse 5 4.5 17:07:46 10° NNW 17:08:25 10° NNW 17:09:05 10° N
NOAA 15 4.5 17:08:02 10° SSE 17:13:16 83° ENE 17:18:33 10° NNW
TRACE 4.2 17:11:20 10° NNE 17:14:37 66° E 17:17:54 10° S
SL-08 R/B 3.4 17:10:09 10° NNE 17:14:46 49° E 17:19:16 10° S
Radarsat Rocket 4.2 17:10:06 10° S 17:15:58 72° WSW 17:21:50 10° NNW
Cosmos 2242 Rocket 3.6 17:13:25 10° N 17:17:49 53° E 17:21:08 17° SSE
Meteor 1-15 Rocket 4.4 17:13:23 10° SSW 17:19:11 78° W 17:24:55 10° N
Resurs 1-3 3.6 17:18:00 22° SE 17:20:38 54° ENE 17:24:52 10° N
Delta 2 Rocket 4.2 17:16:44 10° W 17:21:02 46° SSW 17:22:56 29° SE
SPOT 1/Viking Rocket 3.6 17:17:30 14° SSE 17:21:47 53° ENE 17:26:46 10° N
Helios 1B rocket 2.2 17:19:30 10° S 17:23:17 81° WSW 17:27:06 10° NNW
Cosmos 1818 4.4 17:19:04 10° N 17:23:49 29° NE 17:24:23 29° ENE
Meteor 1-22 Rocket 4.5 17:18:55 10° SSW 17:24:11 64° W 17:29:26 10° N
Cosmos 1300 4.1 17:21:59 10° SSW 17:25:10 35° W 17:28:23 10° N
CZ-4B R/B 3.6 17:26:55 33° SE 17:28:52 51° ENE 17:33:51 10° N
Atlas Centaur 2 4.3 17:26:34 10° WSW 17:32:48 26° SSW 17:37:22 14° SSE
Cosmos 1733 Rocket 2.9 17:29:29 10° S 17:33:44 65° E 17:38:04 10° NNE
Cosmos 1110 Rocket 4.2 17:28:39 10° NNW 17:33:55 73° WSW 17:39:10 10° S
Cosmos 1892 3.9 17:30:41 10° N 17:32:22 26° N 17:32:22 26° N
ATLAS 2AS CENTAUR R/B 3.5 17:28:37 10° NW 17:34:59 47° WSW 17:41:15 10° S
CZ-4B R/B 4.3 17:36:27 26° NE 17:36:27 26° NE 17:39:34 10° N
Lacrosse 5 rocket 3.6 17:36:54 10° W 17:39:28 17° NW 17:41:41 11° N
USA 267 3.2 17:36:31 26° NE 17:40:26 69° SE 17:46:58 10° SW
COSMOS 2406 3.1 17:35:28 10° S 17:41:02 65° ESE 17:45:06 19° NNE
CZ-4C R/B 4.2 17:38:02 10° W 17:41:23 20° NW 17:45:16 10° N
Meteor 1-12 Rocket 4.5 17:36:19 10° SSW 17:41:59 71° W 17:47:48 10° N
Cosmos 1655 Rocket 4.2 17:36:32 10° N 17:42:53 73° W 17:49:09 10° S
SL-24 R/B 4.1 17:44:55 60° NE 17:44:55 60° NE 17:48:31 10° N
CZ-4B DEB 4.0 17:46:01 46° SE 17:47:36 69° ENE 17:53:00 10° N
Cosmos 1375 Rocket 4.4 17:42:30 10° NNW 17:49:00 75° ENE 17:50:57 47° SE
BREEZE-M DEB (TANK) 4.5 17:47:13 10° NNW 17:48:12 20° NNW 17:48:12 20° NNW
Cosmos 2082 Rocket 2.4 17:50:22 10° SSW 17:55:56 69° WNW 18:01:34 10° NNE
ATLAS CENTAUR R/B 3.7 17:53:48 10° N 17:54:35 14° N 17:54:35 14° N
CENTAUR R/B 3.0 17:52:58 10° SSW 17:56:01 35° S 17:56:01 35° S
Cosmos 1980 Rocket 2.1 17:55:12 10° NNW 18:00:51 87° WSW 18:01:50 62° SSE
COSMOS 2455 3.1 17:55:03 10° S 17:59:42 50° SSE 17:59:42 50° SSE
Nadezhda 2 Rocket 4.4 17:57:14 10° N 18:03:38 73° E 18:04:33 63° SE
SL-08 R/B 4.4 17:58:38 10° N 18:04:11 61° NE 18:04:11 61° NE
Gbstr 26 Del rocket 4.5 17:57:13 10° NW 18:05:06 59° NNE 18:06:20 53° ENE
PAYLOAD B 4.1 18:09:27 80° NE 18:09:27 80° NE 18:14:50 10° NNW
USA 234 4.3 18:12:20 29° NNE 18:12:36 30° NNE 18:18:05 10° NNW
Meteor 1-16 Rocket 4.4 18:09:07 10° SSW 18:14:29 67° W 18:20:03 10° N
SL-16 R/B 4.0 18:16:55 10° N 18:18:56 20° NNE 18:18:56 20° NNE
CZ-4 R/B 3.7 18:27:36 19° NNW 18:27:36 19° NNW 18:28:56 10° NNW
FALCON 9 R/B 4.4 18:17:50 10° W 18:26:18 78° S 18:35:11 45° ESE
Resurs 01 Rocket 3.8 18:29:35 19° NNW 18:29:35 19° NNW 18:30:53 10° NNW
ACS3 Solar Sail 1.9 18:30:42 78° NW 18:30:42 78° NW 18:36:40 10° NNW
USA 267 4.5 19:23:55 36° NW 19:23:55 36° NW 19:29:01 10° W
